Showing default

IRIDIUM 165, 43572

Orbit data source: Space-Track

IRIDIUM 165, 43572 is a payload satellite owned by Iridium (US) in LEO that was launched on Wed, 25 Jul 2018 UTC via an FALCON 9 launch vehicle from the Air Force Western Test Range (AFWTR). Payload-class satellites include a variety of spacecraft equipped with specific instruments for various scientific and technological missions. These include communications satellites like Starlink; space stations such as the ISS; scientific satellites like the Hubble; Earth observation satellites from companies like Planet Labs, Umbra, and HawkEye 360; GPS; miniature CubeSats for education and research; and military/defense satellites.

Loading next visibility...
Identifier
43572, 2018-061D
Orbit
LEO
Country
Flag of USUS
Related business
Manufacturer
NGIS SSG Gilbert
Mission
Operational Commercial Communications
Bus & Motor
ELITEBUS, Unknown motor
Mass
860 kg wet, 700 kg dry
Launch date (UTC)
2018-07-25 (7 years ago)
Launch vehicle
FALCON 9
Launch site
Air Force Western Test Range (AFWTR)
Object type
Payload
Rocket body
Debris
Shape & HBR
Trap Box + 2 Pan, 4.7 m
Radar Cross Section
14.423 m², Large (>1 m²)

Expand to show TLE details & history
Last TLE update: 16 hours ago

TLE from 16 hours ago
0 IRIDIUM 165
1 43572U 18061D   25258.74956522  .00000091  00000-0  25598-4 0  9992
2 43572  86.4046 171.4910 0002247  81.1720 278.9730 14.34218599374059
Epoch: 2025-09-15T17:59Z
TLE epoch observation values (Epoch: 2025-09-15T17:59:22.435Z)
Latitude
-0.00001°
Longitude
-93.30223°
Altitude
780.465 km
Speed
7.464 km/s
True Right ascension
11h 25m 57s
True Declination
0° 00' 00"
Sunlit
Object was in daylight at epoch
Visualization orbit readout
Latitude
Unknown
Longitude
Unknown
Altitude
Unknown
Speed
Unknown
Apparent Right ascension
Unknown
Apparent Declination
Unknown
Sunlit
N/A
Visualization observer readout
Local Sidereal Time
02:15:05
Azimuth
Unknown
Elevation
Unknown
Doppler factor
Unknown
Orbital elements
Apogee altitude
776.236 km
Perigee altitude
773.021 km
Semi-major axis
7,152.766 km
Eccentricity
0.00022
Inclination
86.4046°
RAAN
171.491°
Arg. of periapsis
81.172°
True anomaly
278.94757°
Mean anomaly
278.973°
Eccentric anomaly
278.96028°
Mean motion
3.58783 °/min
Orbital period
100.34 mins
BSTAR
0.000025598
Loading maneuver chart data...
Computing Atmospheric mass density...
Loading historical data...
Loading historical data...
Loading historical data...
Loading historical data...
Loading historical data...
Loading historical data...
Loading historical data...

Documentation

Showing up to 5 results
|